Radiation Dose at Monitoring Post of Fukushima Daini Nuclear Power Station
Date,Time,MP-1(microSv/h),MP-2(microSv/h),MP-3(microSv/h),MP-4(microSv/h),MP-5(microSv/h),MP-6(microSv/h),MP-7(microSv/h),Wind Direction,Wind Velocity(m/s),Rain
2022/04/15,00:00,0.157,0.143,0.225,0.218,0.221,0.124,0.080,north-northwest,7.7,Yes
2022/04/15,00:10,0.157,0.144,0.226,0.218,0.221,0.125,0.081,northwest,7.6,Yes
2022/04/15,00:20,0.159,0.144,0.224,0.217,0.221,0.125,0.081,northwest,7.6,Yes
2022/04/15,00:30,0.158,0.142,0.224,0.216,0.219,0.125,0.081,north-northwest,8.0,Yes
2022/04/15,00:40,0.156,0.143,0.225,0.217,0.221,0.125,0.081,north-northwest,8.1,Yes
2022/04/15,00:50,0.157,0.144,0.223,0.216,0.220,0.124,0.081,north-northwest,7.4,Yes
2022/04/15,01:00,0.157,0.142,0.226,0.215,0.219,0.124,0.080,north-northwest,8.5,Yes
2022/04/15,01:10,0.157,0.142,0.224,0.216,0.221,0.125,0.080,north-northwest,8.5,Yes
2022/04/15,01:20,0.157,0.142,0.225,0.216,0.221,0.125,0.080,north-northwest,8.5,Yes
2022/04/15,01:30,0.157,0.142,0.223,0.216,0.220,0.124,0.081,north-northwest,8.2,Yes
2022/04/15,01:40,0.157,0.141,0.225,0.215,0.219,0.125,0.079,northwest,8.0,Yes
2022/04/15,01:50,0.157,0.141,0.224,0.215,0.219,0.123,0.080,north-northwest,8.0,Yes
2022/04/15,02:00,0.155,0.142,0.223,0.215,0.219,0.123,0.079,north-northwest,7.0,Yes
2022/04/15,02:10,0.156,0.142,0.222,0.214,0.219,0.123,0.079,north-northwest,7.5,Yes
2022/04/15,02:20,0.155,0.142,0.223,0.214,0.219,0.123,0.079,north-northwest,7.1,Yes
2022/04/15,02:30,0.155,0.140,0.223,0.215,0.218,0.123,0.079,north-northwest,7.6,Yes
2022/04/15,02:40,0.155,0.142,0.223,0.215,0.218,0.122,0.079,north-northwest,7.1,Yes
2022/04/15,02:50,0.156,0.141,0.222,0.214,0.218,0.122,0.079,north-northwest,8.0,Yes
2022/04/15,03:00,0.157,0.141,0.222,0.213,0.219,0.123,0.079,northwest,8.4,Yes
2022/04/15,03:10,0.156,0.141,0.222,0.214,0.218,0.124,0.080,northwest,6.9,Yes
2022/04/15,03:20,0.155,0.142,0.222,0.214,0.217,0.123,0.079,north-northwest,7.0,Yes
2022/04/15,03:30,0.154,0.142,0.221,0.212,0.217,0.122,0.079,north-northwest,7.3,Yes
2022/04/15,03:40,0.156,0.141,0.221,0.213,0.216,0.122,0.079,north-northwest,6.4,Yes
2022/04/15,03:50,0.155,0.141,0.219,0.212,0.217,0.122,0.079,northwest,6.5,Yes
2022/04/15,04:00,0.155,0.140,0.219,0.210,0.217,0.122,0.079,north-northwest,6.8,Yes
2022/04/15,04:10,0.155,0.140,0.220,0.211,0.218,0.122,0.079,north-northwest,7.2,Yes
2022/04/15,04:20,0.155,0.141,0.219,0.210,0.217,0.121,0.079,north-northwest,6.6,Yes
2022/04/15,04:30,0.153,0.141,0.219,0.211,0.217,0.121,0.080,northwest,7.7,Yes
2022/04/15,04:40,0.154,0.140,0.220,0.212,0.218,0.121,0.079,north-northwest,8.0,Yes
2022/04/15,04:50,0.154,0.140,0.219,0.211,0.219,0.121,0.079,northwest,7.4,Yes
2022/04/15,05:00,0.154,0.141,0.221,0.211,0.218,0.121,0.080,north-northwest,8.0,Yes
2022/04/15,05:10,0.154,0.140,0.221,0.212,0.218,0.121,0.079,northwest,9.0,Yes
2022/04/15,05:20,0.154,0.140,0.221,0.212,0.219,0.120,0.079,north-northwest,9.6,Yes
2022/04/15,05:30,0.154,0.140,0.220,0.212,0.218,0.120,0.078,north-northwest,9.1,No
2022/04/15,05:40,0.153,0.141,0.221,0.211,0.217,0.121,0.078,north-northwest,7.2,No
2022/04/15,05:50,0.152,0.139,0.220,0.212,0.218,0.120,0.077,northwest,6.6,Yes
2022/04/15,06:00,0.153,0.139,0.220,0.212,0.218,0.119,0.077,north-northwest,7.6,No
2022/04/15,06:10,0.154,0.139,0.219,0.211,0.217,0.120,0.078,north-northwest,7.8,No
2022/04/15,06:20,0.153,0.138,0.219,0.211,0.217,0.119,0.078,north-northwest,7.1,No
2022/04/15,06:30,0.153,0.138,0.220,0.212,0.218,0.120,0.077,north-northwest,6.8,No
2022/04/15,06:40,0.154,0.139,0.220,0.211,0.217,0.119,0.077,north-northwest,7.7,No
2022/04/15,06:50,0.152,0.138,0.219,0.210,0.218,0.120,0.076,north-northwest,7.3,No
2022/04/15,07:00,0.153,0.139,0.219,0.212,0.217,0.119,0.078,north-northwest,6.9,No
2022/04/15,07:10,0.154,0.139,0.219,0.212,0.217,0.120,0.077,north-northwest,6.4,No
2022/04/15,07:20,0.152,0.138,0.220,0.211,0.218,0.120,0.077,north-northwest,7.6,No
2022/04/15,07:30,0.153,0.139,0.219,0.212,0.217,0.121,0.077,north-northwest,6.5,Yes
2022/04/15,07:40,0.153,0.138,0.220,0.212,0.217,0.120,0.076,north-northwest,7.5,Yes
2022/04/15,07:50,0.154,0.140,0.220,0.213,0.217,0.120,0.078,north-northwest,6.1,Yes
2022/04/15,08:00,0.153,0.140,0.221,0.211,0.217,0.120,0.078,north-northwest,7.5,Yes
2022/04/15,08:10,0.153,0.140,0.219,0.214,0.218,0.119,0.078,north-northwest,7.4,Yes
2022/04/15,08:20,0.153,0.139,0.220,0.212,0.219,0.120,0.078,north-northwest,6.9,Yes
2022/04/15,08:30,0.154,0.140,0.221,0.212,0.218,0.121,0.078,north-northwest,6.2,Yes
2022/04/15,08:40,0.154,0.139,0.222,0.213,0.219,0.121,0.078,north-northwest,6.4,Yes
2022/04/15,08:50,0.154,0.139,0.220,0.212,0.219,0.120,0.078,north-northwest,5.8,No
2022/04/15,09:00,0.153,0.140,0.220,0.212,0.217,0.120,0.077,north-northwest,4.1,No
2022/04/15,09:10,0.154,0.138,0.221,0.212,0.217,0.120,0.077,north-northwest,5.8,Yes
2022/04/15,09:20,0.153,0.139,0.220,0.214,0.218,0.120,0.077,north-northwest,6.1,Yes
2022/04/15,09:30,0.153,0.139,0.221,0.213,0.218,0.120,0.078,north-northwest,5.9,Yes
2022/04/15,09:40,0.153,0.139,0.220,0.213,0.218,0.120,0.078,north-northwest,5.9,No
2022/04/15,09:50,0.153,0.139,0.220,0.212,0.219,0.120,0.076,northwest,5.2,No
2022/04/15,10:00,0.153,0.138,0.220,0.213,0.218,0.120,0.077,north-northwest,6.8,Yes
2022/04/15,10:10,0.152,0.138,0.220,0.212,0.218,0.120,0.076,north-northwest,7.1,Yes
2022/04/15,10:20,0.153,0.139,0.220,0.213,0.217,0.120,0.077,northwest,7.2,Yes
2022/04/15,10:30,0.153,0.138,0.221,0.212,0.217,0.120,0.078,north-northwest,7.5,Yes
2022/04/15,10:40,0.154,0.139,0.219,0.212,0.219,0.121,0.077,north-northwest,8.5,Yes
2022/04/15,10:50,0.153,0.138,0.220,0.213,0.219,0.121,0.077,north-northwest,8.1,Yes
2022/04/15,11:00,0.153,0.140,0.220,0.212,0.219,0.121,0.079,north-northwest,8.1,Yes
2022/04/15,11:10,0.155,0.140,0.220,0.212,0.220,0.121,0.078,north-northwest,6.9,Yes
2022/04/15,11:20,0.154,0.140,0.221,0.213,0.218,0.121,0.078,north-northwest,6.3,Yes
2022/04/15,11:30,0.154,0.139,0.220,0.213,0.218,0.121,0.078,north-northwest,6.4,Yes
2022/04/15,11:40,0.154,0.140,0.220,0.212,0.218,0.122,0.078,north-northwest,4.7,Yes
2022/04/15,11:50,0.154,0.140,0.220,0.212,0.217,0.121,0.078,north,5.8,Yes
2022/04/15,12:00,0.154,0.141,0.220,0.213,0.218,0.122,0.079,north,6.1,Yes
2022/04/15,12:10,0.154,0.140,0.219,0.212,0.219,0.121,0.079,north-northwest,6.2,Yes
2022/04/15,12:20,0.154,0.140,0.221,0.213,0.218,0.122,0.078,north,6.4,Yes
2022/04/15,12:30,0.153,0.141,0.219,0.212,0.217,0.121,0.079,north-northwest,6.5,Yes
2022/04/15,12:40,0.154,0.140,0.219,0.213,0.220,0.121,0.079,north-northwest,7.0,Yes
2022/04/15,12:50,0.154,0.140,0.220,0.211,0.219,0.121,0.079,north-northwest,7.0,Yes
2022/04/15,13:00,0.153,0.141,0.219,0.211,0.217,0.122,0.078,north,7.4,Yes
2022/04/15,13:10,0.154,0.140,0.219,0.212,0.217,0.121,0.079,north-northwest,6.3,Yes
2022/04/15,13:20,0.154,0.140,0.219,0.212,0.219,0.122,0.079,north-northwest,5.9,Yes
2022/04/15,13:30,0.154,0.140,0.219,0.211,0.218,0.121,0.079,north,6.2,Yes
2022/04/15,13:40,0.154,0.140,0.219,0.211,0.217,0.121,0.079,north,5.9,Yes
2022/04/15,13:50,0.153,0.141,0.218,0.211,0.217,0.122,0.080,north,5.2,Yes
2022/04/15,14:00,0.153,0.140,0.219,0.211,0.220,0.121,0.080,north,5.4,Yes
2022/04/15,14:10,0.154,0.142,0.218,0.211,0.219,0.122,0.081,north,4.9,Yes
2022/04/15,14:20,0.154,0.141,0.218,0.210,0.217,0.122,0.080,north-northwest,7.0,Yes
2022/04/15,14:30,0.153,0.141,0.218,0.210,0.218,0.122,0.080,north,7.8,Yes
2022/04/15,14:40,0.153,0.140,0.219,0.211,0.217,0.122,0.079,north,8.2,Yes
2022/04/15,14:50,0.154,0.140,0.218,0.211,0.218,0.122,0.080,north,5.9,Yes
2022/04/15,15:00,0.152,0.140,0.219,0.211,0.218,0.121,0.079,north,6.6,Yes
2022/04/15,15:10,0.153,0.141,0.219,0.210,0.217,0.121,0.080,north,6.0,Yes
2022/04/15,15:20,0.153,0.140,0.218,0.211,0.217,0.121,0.079,north,7.4,Yes
2022/04/15,15:30,0.153,0.140,0.218,0.210,0.218,0.121,0.080,north,7.5,Yes
2022/04/15,15:40,0.152,0.140,0.219,0.209,0.217,0.121,0.079,north,6.6,Yes
2022/04/15,15:50,0.153,0.139,0.218,0.209,0.217,0.121,0.080,north,7.9,Yes
2022/04/15,16:00,0.152,0.140,0.217,0.210,0.217,0.120,0.079,north,9.3,Yes
2022/04/15,16:10,0.153,0.140,0.217,0.209,0.217,0.121,0.079,north,7.4,Yes
2022/04/15,16:20,0.152,0.140,0.218,0.209,0.217,0.121,0.079,north,7.0,Yes
2022/04/15,16:30,0.152,0.140,0.217,0.208,0.216,0.120,0.079,north,7.3,Yes
2022/04/15,16:40,0.152,0.140,0.218,0.209,0.217,0.121,0.079,north,9.1,Yes
2022/04/15,16:50,0.152,0.141,0.217,0.211,0.218,0.122,0.079,north,7.0,Yes
2022/04/15,17:00,0.152,0.140,0.218,0.209,0.218,0.121,0.079,north,8.5,Yes
2022/04/15,17:10,0.153,0.140,0.218,0.210,0.218,0.121,0.079,north,8.0,Yes
2022/04/15,17:20,0.154,0.141,0.218,0.210,0.217,0.121,0.079,north,6.5,Yes
2022/04/15,17:30,0.153,0.141,0.219,0.210,0.217,0.122,0.079,north,9.0,Yes
2022/04/15,17:40,0.153,0.140,0.219,0.210,0.217,0.121,0.080,north,7.6,Yes
2022/04/15,17:50,0.153,0.141,0.219,0.210,0.219,0.122,0.080,north,8.3,Yes
2022/04/15,18:00,0.152,0.140,0.220,0.210,0.218,0.122,0.079,north,7.6,Yes
2022/04/15,18:10,0.153,0.142,0.218,0.211,0.218,0.121,0.080,north-northwest,7.3,Yes
2022/04/15,18:20,0.153,0.141,0.218,0.211,0.218,0.121,0.080,north,8.4,Yes
2022/04/15,18:30,0.153,0.140,0.219,0.210,0.218,0.121,0.079,north-northwest,7.9,Yes
2022/04/15,18:40,0.153,0.141,0.218,0.211,0.218,0.121,0.080,north,6.6,Yes
2022/04/15,18:50,0.152,0.140,0.219,0.210,0.217,0.121,0.080,north-northwest,6.6,Yes
2022/04/15,19:00,0.152,0.140,0.219,0.210,0.218,0.121,0.079,north-northwest,8.0,Yes
2022/04/15,19:10,0.153,0.141,0.218,0.210,0.217,0.121,0.080,north-northwest,7.9,Yes
2022/04/15,19:20,0.152,0.140,0.218,0.210,0.217,0.121,0.080,north-northwest,8.2,Yes
2022/04/15,19:30,0.154,0.141,0.219,0.211,0.219,0.121,0.081,north,7.6,Yes
2022/04/15,19:40,0.152,0.141,0.219,0.209,0.218,0.122,0.080,north,8.4,Yes
2022/04/15,19:50,0.153,0.142,0.219,0.210,0.218,0.122,0.080,north-northwest,7.4,Yes
2022/04/15,20:00,0.153,0.141,0.219,0.210,0.219,0.121,0.080,north-northwest,7.1,Yes
2022/04/15,20:10,0.152,0.142,0.219,0.211,0.219,0.122,0.081,north-northwest,6.6,Yes
2022/04/15,20:20,0.152,0.140,0.219,0.210,0.217,0.122,0.081,north-northwest,8.6,Yes
2022/04/15,20:30,0.153,0.141,0.219,0.210,0.219,0.122,0.080,north-northwest,8.6,Yes
2022/04/15,20:40,0.152,0.140,0.218,0.210,0.218,0.121,0.079,north-northwest,7.7,Yes
2022/04/15,20:50,0.153,0.141,0.218,0.210,0.218,0.121,0.080,north-northwest,8.9,Yes
2022/04/15,21:00,0.153,0.141,0.219,0.210,0.218,0.122,0.081,north-northwest,8.9,Yes
2022/04/15,21:10,0.153,0.141,0.218,0.209,0.219,0.121,0.081,north,9.5,Yes
2022/04/15,21:20,0.153,0.141,0.219,0.210,0.217,0.122,0.081,north,8.8,Yes
2022/04/15,21:30,0.152,0.140,0.218,0.210,0.217,0.122,0.081,north-northwest,8.6,Yes
2022/04/15,21:40,0.152,0.141,0.218,0.211,0.218,0.122,0.080,north,8.8,Yes
2022/04/15,21:50,0.152,0.141,0.219,0.210,0.218,0.122,0.080,north,8.1,Yes
2022/04/15,22:00,0.152,0.142,0.217,0.209,0.218,0.121,0.081,north-northwest,8.5,Yes
2022/04/15,22:10,0.152,0.141,0.218,0.209,0.218,0.121,0.081,north-northwest,9.4,Yes
2022/04/15,22:20,0.151,0.141,0.218,0.210,0.217,0.121,0.079,north-northwest,8.3,Yes
2022/04/15,22:30,0.152,0.140,0.219,0.211,0.217,0.120,0.079,north-northwest,8.9,Yes
2022/04/15,22:40,0.153,0.140,0.218,0.209,0.217,0.120,0.080,north-northwest,8.7,Yes
2022/04/15,22:50,0.151,0.140,0.217,0.210,0.216,0.120,0.079,north-northwest,8.6,Yes
2022/04/15,23:00,0.152,0.140,0.217,0.209,0.218,0.121,0.079,north,7.1,Yes
2022/04/15,23:10,0.151,0.141,0.219,0.209,0.219,0.120,0.078,north-northwest,8.9,Yes
2022/04/15,23:20,0.152,0.140,0.217,0.209,0.217,0.122,0.080,north-northwest,7.8,Yes
2022/04/15,23:30,0.152,0.140,0.217,0.209,0.217,0.120,0.080,north,9.1,Yes
2022/04/15,23:40,0.150,0.141,0.217,0.208,0.217,0.121,0.079,north-northwest,8.3,Yes
2022/04/15,23:50,0.152,0.140,0.218,0.210,0.218,0.120,0.080,north-northwest,8.0,Yes
